Time,TemperatureF,DewpointF,PressureIn,WindDirection,WindDirectionDegrees,WindSpeedMPH,WindSpeedGustMPH,Humidity,HourlyPrecipIn,Conditions,Clouds,dailyrainin,SoftwareType,DateUTC
2013-03-06 00:00:00,33.7,26.3,29.90,East,93,2.0,4.0,74,0.00,,BKN050,0.00,VWS V14.01,2013-03-06 05:00:00,
2013-03-06 00:05:00,33.6,26.2,29.89,East,88,2.0,4.0,74,0.00,,BKN050,0.00,VWS V14.01,2013-03-06 05:05:00,
2013-03-06 00:10:00,33.7,26.3,29.89,SE,132,2.0,4.0,74,0.00,,BKN050,0.00,VWS V14.01,2013-03-06 05:10:00,
2013-03-06 00:15:00,34.0,26.6,29.89,East,90,4.0,6.0,74,0.00,,BKN050,0.00,VWS V14.01,2013-03-06 05:15:00,
2013-03-06 00:20:00,34.6,26.9,29.89,East,98,3.0,6.0,73,0.00,,BKN050,0.00,VWS V14.01,2013-03-06 05:20:00,
2013-03-06 00:25:00,35.2,26.8,29.89,ENE,64,3.0,9.0,71,0.00,,BKN050,0.00,VWS V14.01,2013-03-06 05:25:00,
2013-03-06 00:30:00,35.7,26.9,29.89,ESE,108,6.0,12.0,70,0.00,,BKN050,0.00,VWS V14.01,2013-03-06 05:30:00,
2013-03-06 00:35:00,36.1,26.9,29.89,East,96,15.0,15.0,69,0.00,,BKN050,0.00,VWS V14.01,2013-03-06 05:35:00,
2013-03-06 00:40:00,36.4,27.2,29.89,East,90,5.0,15.0,69,0.00,,BKN050,0.00,VWS V14.01,2013-03-06 05:40:00,
2013-03-06 00:45:00,36.6,27.0,29.89,SE,131,4.0,15.0,68,0.00,,BKN050,0.00,VWS V14.01,2013-03-06 05:45:00,
2013-03-06 00:50:00,36.8,27.2,29.89,East,89,7.0,15.0,68,0.00,,BKN050,0.00,VWS V14.01,2013-03-06 05:50:00,
2013-03-06 00:55:00,37.1,27.5,29.89,East,82,6.0,15.0,68,0.00,,BKN050,0.00,VWS V14.01,2013-03-06 05:55:00,
2013-03-06 01:00:00,37.3,27.4,29.89,East,97,4.0,15.0,67,0.00,,OVC050,0.00,VWS V14.01,2013-03-06 06:00:00,
2013-03-06 01:05:00,37.3,27.4,29.89,East,100,10.0,10.0,67,0.00,,OVC050,0.00,VWS V14.01,2013-03-06 06:05:00,
2013-03-06 01:10:00,37.4,27.5,29.89,ENE,77,5.0,12.0,67,0.00,,OVC050,0.00,VWS V14.01,2013-03-06 06:10:00,
2013-03-06 01:15:00,37.5,27.5,29.89,East,95,5.0,13.0,67,0.00,,OVC050,0.00,VWS V14.01,2013-03-06 06:15:00,
2013-03-06 01:20:00,37.4,27.5,29.89,East,96,5.0,13.0,67,0.00,,OVC050,0.00,VWS V14.01,2013-03-06 06:20:00,
2013-03-06 01:25:00,37.4,27.5,29.88,East,91,5.0,13.0,67,0.00,,OVC050,0.00,VWS V14.01,2013-03-06 06:25:00,
2013-03-06 01:30:00,37.4,27.5,29.88,ESE,115,7.0,13.0,67,0.00,,OVC050,0.00,VWS V14.01,2013-03-06 06:30:00,
2013-03-06 01:35:00,37.3,27.4,29.88,ENE,60,5.0,8.0,67,0.00,,OVC050,0.00,VWS V14.01,2013-03-06 06:35:00,
2013-03-06 01:40:00,37.3,27.4,29.88,East,83,6.0,8.0,67,0.00,,OVC050,0.00,VWS V14.01,2013-03-06 06:40:00,
2013-03-06 01:45:00,37.3,27.4,29.88,NE,52,3.0,11.0,67,0.00,,OVC050,0.00,VWS V14.01,2013-03-06 06:45:00,
2013-03-06 01:50:00,37.2,27.6,29.88,NNE,30,4.0,11.0,68,0.00,,OVC050,0.00,VWS V14.01,2013-03-06 06:50:00,
2013-03-06 01:55:00,37.2,27.3,29.87,East,79,9.0,11.0,67,0.00,,OVC050,0.00,VWS V14.01,2013-03-06 06:55:00,
2013-03-06 02:00:00,37.2,27.3,29.87,ENE,75,6.0,11.0,67,0.00,,BKN050,0.00,VWS V14.01,2013-03-06 07:00:00,
2013-03-06 02:05:00,37.1,27.2,29.87,East,95,3.0,12.0,67,0.00,,BKN050,0.00,VWS V14.01,2013-03-06 07:05:00,
2013-03-06 02:10:00,37.0,27.4,29.86,ENE,59,2.0,12.0,68,0.00,,BKN050,0.00,VWS V14.01,2013-03-06 07:10:00,
2013-03-06 02:15:00,36.8,27.2,29.86,ESE,108,5.0,12.0,68,0.00,,BKN050,0.00,VWS V14.01,2013-03-06 07:15:00,
2013-03-06 02:20:00,36.8,27.2,29.86,ENE,73,4.0,12.0,68,0.00,,BKN050,0.00,VWS V14.01,2013-03-06 07:20:00,
2013-03-06 02:25:00,36.7,27.1,29.86,East,92,6.0,12.0,68,0.00,,BKN050,0.00,VWS V14.01,2013-03-06 07:25:00,
2013-03-06 02:30:00,36.7,27.5,29.86,ENE,77,4.0,12.0,69,0.00,,BKN050,0.00,VWS V14.01,2013-03-06 07:30:00,
2013-03-06 02:35:00,36.7,27.5,29.86,NE,52,2.0,9.0,69,0.00,,BKN050,0.00,VWS V14.01,2013-03-06 07:35:00,
2013-03-06 02:40:00,36.6,27.4,29.86,East,96,5.0,9.0,69,0.00,,BKN050,0.00,VWS V14.01,2013-03-06 07:40:00,
2013-03-06 02:45:00,36.5,27.3,29.85,ESE,104,5.0,10.0,69,0.00,,BKN050,0.00,VWS V14.01,2013-03-06 07:45:00,
2013-03-06 02:50:00,36.5,27.3,29.85,East,97,2.0,10.0,69,0.00,,BKN050,0.00,VWS V14.01,2013-03-06 07:50:00,
2013-03-06 02:55:00,36.4,27.2,29.85,East,89,1.0,10.0,69,0.00,,BKN050,0.00,VWS V14.01,2013-03-06 07:55:00,
2013-03-06 03:00:00,36.3,27.1,29.84,East,88,6.0,10.0,69,0.00,,CLR,0.00,VWS V14.01,2013-03-06 08:00:00,
2013-03-06 03:05:00,36.3,27.1,29.85,East,84,5.0,8.0,69,0.00,,CLR,0.00,VWS V14.01,2013-03-06 08:05:00,
2013-03-06 03:10:00,36.3,27.1,29.85,ENE,78,5.0,10.0,69,0.00,,CLR,0.00,VWS V14.01,2013-03-06 08:10:00,
2013-03-06 03:15:00,36.2,27.0,29.84,East,86,3.0,10.0,69,0.00,,CLR,0.00,VWS V14.01,2013-03-06 08:15:00,
2013-03-06 03:20:00,36.2,27.0,29.84,ENE,70,3.0,10.0,69,0.00,,CLR,0.00,VWS V14.01,2013-03-06 08:20:00,
2013-03-06 03:25:00,36.2,27.0,29.84,ENE,60,4.0,10.0,69,0.00,,CLR,0.00,VWS V14.01,2013-03-06 08:25:00,
2013-03-06 03:30:00,36.1,26.9,29.84,ESE,108,5.0,10.0,69,0.00,,CLR,0.00,VWS V14.01,2013-03-06 08:30:00,
2013-03-06 03:35:00,36.0,26.8,29.84,NNE,31,3.0,8.0,69,0.00,,CLR,0.00,VWS V14.01,2013-03-06 08:35:00,
2013-03-06 03:40:00,36.0,27.2,29.84,East,90,6.0,8.0,70,0.00,,CLR,0.00,VWS V14.01,2013-03-06 08:40:00,
2013-03-06 03:45:00,36.0,27.2,29.84,East,86,2.0,8.0,70,0.00,,CLR,0.00,VWS V14.01,2013-03-06 08:45:00,
2013-03-06 03:50:00,35.9,27.1,29.84,East,88,8.0,8.0,70,0.00,,CLR,0.00,VWS V14.01,2013-03-06 08:50:00,
2013-03-06 03:55:00,36.0,27.2,29.84,East,92,8.0,8.0,70,0.00,,CLR,0.00,VWS V14.01,2013-03-06 08:55:00,
2013-03-06 04:00:00,36.0,27.2,29.84,NE,42,1.0,8.0,70,0.00,,CLR,0.00,VWS V14.01,2013-03-06 09:00:00,
2013-03-06 04:05:00,36.0,27.2,29.84,ENE,59,2.0,6.0,70,0.00,,CLR,0.00,VWS V14.01,2013-03-06 09:05:00,
2013-03-06 04:10:00,36.0,27.2,29.84,East,94,3.0,6.0,70,0.00,,CLR,0.00,VWS V14.01,2013-03-06 09:10:00,
2013-03-06 04:15:00,35.9,27.1,29.84,SE,126,1.0,6.0,70,0.00,,CLR,0.00,VWS V14.01,2013-03-06 09:15:00,
2013-03-06 04:20:00,35.9,27.1,29.84,East,100,2.0,6.0,70,0.00,,CLR,0.00,VWS V14.01,2013-03-06 09:20:00,
2013-03-06 04:25:00,35.6,27.1,29.84,ESE,123,1.0,6.0,71,0.00,,CLR,0.00,VWS V14.01,2013-03-06 09:25:00,
2013-03-06 04:30:00,35.2,27.1,29.84,SSE,150,0.0,6.0,72,0.00,,CLR,0.00,VWS V14.01,2013-03-06 09:30:00,
2013-03-06 04:35:00,35.0,27.2,29.84,SE,129,0.0,2.0,73,0.00,,CLR,0.00,VWS V14.01,2013-03-06 09:35:00,
2013-03-06 04:40:00,34.8,27.0,29.85,SW,229,0.0,2.0,73,0.00,,CLR,0.00,VWS V14.01,2013-03-06 09:40:00,
2013-03-06 04:45:00,34.4,27.0,29.85,ESE,111,1.0,2.0,74,0.00,,CLR,0.00,VWS V14.01,2013-03-06 09:45:00,
2013-03-06 04:50:00,34.1,27.0,29.85,ESE,113,1.0,2.0,75,0.00,,CLR,0.00,VWS V14.01,2013-03-06 09:50:00,
2013-03-06 04:55:00,34.3,27.2,29.85,East,98,0.0,2.0,75,0.00,,CLR,0.00,VWS V14.01,2013-03-06 09:55:00,
2013-03-06 05:00:00,34.7,27.6,29.86,ESE,110,1.0,4.0,75,0.00,,CLR,0.00,VWS V14.01,2013-03-06 10:00:00,
2013-03-06 05:05:00,34.9,27.5,29.86,East,84,7.0,7.0,74,0.00,,CLR,0.00,VWS V14.01,2013-03-06 10:05:00,
2013-03-06 05:10:00,35.2,27.4,29.86,East,93,3.0,7.0,73,0.00,,CLR,0.00,VWS V14.01,2013-03-06 10:10:00,
2013-03-06 05:15:00,35.4,27.6,29.86,East,101,3.0,7.0,73,0.00,,CLR,0.00,VWS V14.01,2013-03-06 10:15:00,
2013-03-06 05:20:00,35.6,27.8,29.86,ESE,110,4.0,7.0,73,0.00,,CLR,0.00,VWS V14.01,2013-03-06 10:20:00,
2013-03-06 05:25:00,35.7,27.6,29.86,East,79,5.0,7.0,72,0.00,,CLR,0.00,VWS V14.01,2013-03-06 10:25:00,
2013-03-06 05:30:00,35.9,27.8,29.86,East,100,6.0,7.0,72,0.00,,CLR,0.00,VWS V14.01,2013-03-06 10:30:00,
2013-03-06 05:35:00,36.1,28.0,29.86,East,100,3.0,5.0,72,0.00,,FEW033,0.00,VWS V14.01,2013-03-06 10:35:00,
2013-03-06 05:40:00,36.1,28.0,29.87,ENE,72,5.0,7.0,72,0.00,,FEW033,0.00,VWS V14.01,2013-03-06 10:40:00,
2013-03-06 05:45:00,36.3,28.1,29.87,SSE,148,2.0,10.0,72,0.00,,FEW033,0.00,VWS V14.01,2013-03-06 10:45:00,
2013-03-06 05:50:00,36.4,28.2,29.87,ESE,110,5.0,10.0,72,0.00,,FEW033,0.00,VWS V14.01,2013-03-06 10:50:00,
2013-03-06 05:55:00,36.5,28.4,29.87,East,96,2.0,10.0,72,0.00,,FEW033,0.00,VWS V14.01,2013-03-06 10:55:00,
2013-03-06 06:00:00,36.6,28.4,29.87,East,91,4.0,10.0,72,0.00,,FEW033,0.00,VWS V14.01,2013-03-06 11:00:00,
2013-03-06 06:05:00,36.6,28.4,29.87,ENE,62,2.0,5.0,72,0.00,,BKN039,0.00,VWS V14.01,2013-03-06 11:05:00,
2013-03-06 06:10:00,36.7,28.5,29.87,East,82,3.0,5.0,72,0.00,,BKN039,0.00,VWS V14.01,2013-03-06 11:10:00,
2013-03-06 06:15:00,36.7,28.5,29.87,ESE,110,3.0,7.0,72,0.00,,BKN039,0.00,VWS V14.01,2013-03-06 11:15:00,
2013-03-06 06:20:00,36.8,28.6,29.87,East,80,3.0,7.0,72,0.00,,BKN039,0.00,VWS V14.01,2013-03-06 11:20:00,
2013-03-06 06:25:00,36.8,28.6,29.87,ESE,120,1.0,7.0,72,0.00,,BKN039,0.00,VWS V14.01,2013-03-06 11:25:00,
2013-03-06 06:30:00,36.8,28.6,29.87,East,95,2.0,7.0,72,0.00,,BKN039,0.00,VWS V14.01,2013-03-06 11:30:00,
2013-03-06 06:35:00,36.8,28.6,29.87,ESE,104,3.0,4.0,72,0.00,,BKN039,0.00,VWS V14.01,2013-03-06 11:35:00,
2013-03-06 06:40:00,36.9,28.7,29.87,East,98,1.0,4.0,72,0.00,,BKN039,0.00,VWS V14.01,2013-03-06 11:40:00,
2013-03-06 06:45:00,36.9,28.4,29.87,ESE,108,1.0,6.0,71,0.00,,BKN039,0.00,VWS V14.01,2013-03-06 11:45:00,
2013-03-06 06:50:00,37.0,28.5,29.87,ENE,70,2.0,6.0,71,0.00,,BKN039,0.00,VWS V14.01,2013-03-06 11:50:00,
2013-03-06 06:55:00,37.1,28.2,29.87,East,98,1.0,6.0,70,0.00,,BKN039,0.00,VWS V14.01,2013-03-06 11:55:00,
2013-03-06 07:00:00,37.2,28.3,29.87,East,80,2.0,6.0,70,0.00,,OVC039,0.00,VWS V14.01,2013-03-06 12:00:00,
2013-03-06 07:05:00,37.2,28.3,29.87,NE,41,4.0,6.0,70,0.00,,OVC039,0.00,VWS V14.01,2013-03-06 12:05:00,
2013-03-06 07:10:00,37.2,28.3,29.87,ENE,71,6.0,9.0,70,0.00,,OVC039,0.00,VWS V14.01,2013-03-06 12:10:00,
2013-03-06 07:15:00,37.2,28.3,29.87,ENE,60,2.0,9.0,70,0.00,,OVC039,0.00,VWS V14.01,2013-03-06 12:15:00,
2013-03-06 07:20:00,37.2,28.0,29.87,NE,40,6.0,9.0,69,0.00,,OVC039,0.00,VWS V14.01,2013-03-06 12:20:00,
2013-03-06 07:25:00,37.3,28.1,29.88,SE,138,3.0,12.0,69,0.00,,OVC039,0.00,VWS V14.01,2013-03-06 12:25:00,
2013-03-06 07:30:00,37.4,28.2,29.88,ESE,103,2.0,12.0,69,0.00,,OVC039,0.00,VWS V14.01,2013-03-06 12:30:00,
2013-03-06 07:35:00,37.4,28.2,29.88,NE,44,4.0,7.0,69,0.00,,OVC039,0.00,VWS V14.01,2013-03-06 12:35:00,
2013-03-06 07:40:00,37.5,28.3,29.88,NE,46,3.0,9.0,69,0.00,,OVC039,0.00,VWS V14.01,2013-03-06 12:40:00,
2013-03-06 07:45:00,37.6,28.4,29.88,NE,37,2.0,9.0,69,0.00,,OVC039,0.00,VWS V14.01,2013-03-06 12:45:00,
2013-03-06 07:50:00,37.6,28.4,29.88,East,89,9.0,10.0,69,0.00,,OVC039,0.00,VWS V14.01,2013-03-06 12:50:00,
2013-03-06 07:55:00,37.7,28.5,29.88,ENE,73,5.0,10.0,69,0.00,,OVC039,0.00,VWS V14.01,2013-03-06 12:55:00,
2013-03-06 08:00:00,37.7,28.5,29.89,NNE,30,3.0,10.0,69,0.00,,OVC037,0.00,VWS V14.01,2013-03-06 13:00:00,
2013-03-06 08:05:00,37.8,28.2,29.89,East,91,3.0,8.0,68,0.00,,OVC037,0.00,VWS V14.01,2013-03-06 13:05:00,
2013-03-06 08:10:00,37.9,28.6,29.89,East,83,2.0,8.0,69,0.00,,OVC037,0.00,VWS V14.01,2013-03-06 13:10:00,
2013-03-06 08:15:00,38.0,28.8,29.89,NE,36,3.0,8.0,69,0.00,,OVC037,0.00,VWS V14.01,2013-03-06 13:15:00,
2013-03-06 08:20:00,38.2,28.6,29.90,NNE,18,4.0,10.0,68,0.00,,OVC037,0.00,VWS V14.01,2013-03-06 13:20:00,
2013-03-06 08:25:00,38.5,28.9,29.90,NE,53,2.0,10.0,68,0.00,,OVC037,0.00,VWS V14.01,2013-03-06 13:25:00,
2013-03-06 08:30:00,38.6,28.6,29.90,ENE,70,3.0,10.0,67,0.00,,OVC037,0.00,VWS V14.01,2013-03-06 13:30:00,
2013-03-06 08:35:00,38.7,28.7,29.90,East,82,4.0,9.0,67,0.00,,OVC037,0.00,VWS V14.01,2013-03-06 13:35:00,
2013-03-06 08:40:00,38.7,28.7,29.90,NE,47,4.0,9.0,67,0.00,,OVC037,0.00,VWS V14.01,2013-03-06 13:40:00,
2013-03-06 08:45:00,38.6,28.6,29.90,ENE,63,2.0,9.0,67,0.00,,OVC037,0.00,VWS V14.01,2013-03-06 13:45:00,
2013-03-06 08:50:00,38.5,28.5,29.90,ENE,67,5.0,10.0,67,0.00,,OVC037,0.00,VWS V14.01,2013-03-06 13:50:00,
2013-03-06 08:55:00,38.4,28.8,29.90,ENE,65,3.0,10.0,68,0.00,,OVC037,0.00,VWS V14.01,2013-03-06 13:55:00,
2013-03-06 09:00:00,38.5,28.9,29.90,ENE,67,3.0,10.0,68,0.00,,OVC037,0.00,VWS V14.01,2013-03-06 14:00:00,
2013-03-06 09:05:00,38.5,28.9,29.90,ENE,73,1.0,7.0,68,0.00,,OVC035,0.00,VWS V14.01,2013-03-06 14:05:00,
2013-03-06 09:10:00,38.6,29.0,29.90,ENE,75,2.0,7.0,68,0.00,,OVC035,0.00,VWS V14.01,2013-03-06 14:10:00,
2013-03-06 09:15:00,38.6,29.0,29.91,NE,41,3.0,10.0,68,0.00,,OVC035,0.00,VWS V14.01,2013-03-06 14:15:00,
2013-03-06 09:20:00,38.7,29.1,29.91,East,84,2.0,10.0,68,0.00,,OVC035,0.00,VWS V14.01,2013-03-06 14:20:00,
2013-03-06 09:25:00,38.7,29.1,29.91,NE,49,2.0,10.0,68,0.00,,OVC035,0.00,VWS V14.01,2013-03-06 14:25:00,
2013-03-06 09:30:00,38.9,29.2,29.91,East,89,4.0,10.0,68,0.00,,OVC035,0.00,VWS V14.01,2013-03-06 14:30:00,
2013-03-06 09:35:00,38.9,29.2,29.91,NE,41,3.0,11.0,68,0.00,,OVC035,0.00,VWS V14.01,2013-03-06 14:35:00,
2013-03-06 09:40:00,38.9,29.2,29.91,NE,52,6.0,11.0,68,0.00,,OVC035,0.00,VWS V14.01,2013-03-06 14:40:00,
2013-03-06 09:45:00,39.0,29.4,29.91,NNE,31,3.0,11.0,68,0.00,,OVC035,0.00,VWS V14.01,2013-03-06 14:45:00,
2013-03-06 09:50:00,39.0,29.4,29.91,East,86,5.0,11.0,68,0.00,,OVC035,0.00,VWS V14.01,2013-03-06 14:50:00,
2013-03-06 09:55:00,39.2,29.2,29.91,ENE,65,7.0,11.0,67,0.00,,OVC035,0.00,VWS V14.01,2013-03-06 14:55:00,
2013-03-06 10:00:00,39.4,29.4,29.91,ENE,74,4.0,11.0,67,0.00,,OVC037,0.00,VWS V14.01,2013-03-06 15:00:00,
2013-03-06 10:05:00,39.5,29.1,29.91,NE,40,5.0,9.0,66,0.00,,OVC037,0.00,VWS V14.01,2013-03-06 15:05:00,
2013-03-06 10:10:00,39.6,29.2,29.91,NNE,30,3.0,9.0,66,0.00,,OVC037,0.00,VWS V14.01,2013-03-06 15:10:00,
2013-03-06 10:15:00,39.8,29.4,29.91,East,100,8.0,9.0,66,0.00,,OVC037,0.00,VWS V14.01,2013-03-06 15:15:00,
2013-03-06 10:20:00,40.0,29.6,29.92,East,79,4.0,11.0,66,0.00,,OVC037,0.00,VWS V14.01,2013-03-06 15:20:00,
2013-03-06 10:25:00,40.2,29.4,29.92,ENE,75,6.0,11.0,65,0.00,,OVC037,0.00,VWS V14.01,2013-03-06 15:25:00,
2013-03-06 10:30:00,40.4,29.6,29.92,ENE,77,5.0,12.0,65,0.00,,OVC037,0.00,VWS V14.01,2013-03-06 15:30:00,
2013-03-06 10:35:00,40.5,29.3,29.92,East,94,9.0,13.0,64,0.00,,OVC037,0.00,VWS V14.01,2013-03-06 15:35:00,
2013-03-06 10:40:00,40.7,29.9,29.92,ENE,77,8.0,18.0,65,0.00,,OVC037,0.00,VWS V14.01,2013-03-06 15:40:00,
2013-03-06 10:45:00,40.9,29.7,29.92,NE,43,4.0,18.0,64,0.00,,OVC037,0.00,VWS V14.01,2013-03-06 15:45:00,
2013-03-06 10:50:00,41.1,29.9,29.92,NE,49,8.0,18.0,64,0.00,,OVC037,0.00,VWS V14.01,2013-03-06 15:50:00,
2013-03-06 10:55:00,41.3,30.1,29.92,East,89,9.0,18.0,64,0.00,,OVC037,0.00,VWS V14.01,2013-03-06 15:55:00,
2013-03-06 11:00:00,41.5,29.9,29.92,ENE,76,5.0,18.0,63,0.00,,OVC039,0.00,VWS V14.01,2013-03-06 16:00:00,
2013-03-06 11:05:00,41.6,30.0,29.93,NE,45,3.0,14.0,63,0.00,,OVC039,0.00,VWS V14.01,2013-03-06 16:05:00,
2013-03-06 11:10:00,41.7,30.0,29.93,ESE,116,5.0,14.0,63,0.00,,OVC039,0.00,VWS V14.01,2013-03-06 16:10:00,
2013-03-06 11:15:00,41.8,30.1,29.92,NE,55,5.0,14.0,63,0.00,,OVC039,0.00,VWS V14.01,2013-03-06 16:15:00,
2013-03-06 11:20:00,41.8,29.8,29.93,East,88,2.0,16.0,62,0.00,,OVC039,0.00,VWS V14.01,2013-03-06 16:20:00,
2013-03-06 11:25:00,42.0,29.9,29.93,East,86,4.0,16.0,62,0.00,,OVC039,0.00,VWS V14.01,2013-03-06 16:25:00,
2013-03-06 11:30:00,41.8,29.8,29.93,ESE,102,3.0,16.0,62,0.00,,OVC039,0.00,VWS V14.01,2013-03-06 16:30:00,
2013-03-06 11:35:00,41.4,29.8,29.93,NE,49,4.0,9.0,63,0.00,,OVC039,0.00,VWS V14.01,2013-03-06 16:35:00,
2013-03-06 11:40:00,40.9,29.7,29.93,East,80,8.0,12.0,64,0.00,,OVC039,0.00,VWS V14.01,2013-03-06 16:40:00,
2013-03-06 11:45:00,40.6,29.8,29.93,ENE,61,5.0,15.0,65,0.00,,OVC039,0.00,VWS V14.01,2013-03-06 16:45:00,
2013-03-06 11:50:00,40.6,29.8,29.93,East,79,13.0,15.0,65,0.00,,OVC039,0.00,VWS V14.01,2013-03-06 16:50:00,
2013-03-06 11:55:00,40.7,29.9,29.94,NE,34,7.0,15.0,65,0.00,,OVC039,0.00,VWS V14.01,2013-03-06 16:55:00,
2013-03-06 12:00:00,40.6,29.4,29.93,NNE,24,5.0,15.0,64,0.00,,OVC039,0.00,VWS V14.01,2013-03-06 17:00:00,
2013-03-06 12:05:00,40.6,29.8,29.94,East,101,3.0,15.0,65,0.00,,OVC041,0.00,VWS V14.01,2013-03-06 17:05:00,
2013-03-06 12:10:00,40.7,29.9,29.94,NE,45,6.0,15.0,65,0.00,,OVC041,0.00,VWS V14.01,2013-03-06 17:10:00,
2013-03-06 12:15:00,40.8,30.0,29.94,NE,42,4.0,15.0,65,0.00,,OVC041,0.00,VWS V14.01,2013-03-06 17:15:00,
2013-03-06 12:20:00,40.8,29.6,29.94,NE,47,6.0,15.0,64,0.00,,OVC041,0.00,VWS V14.01,2013-03-06 17:20:00,
2013-03-06 12:25:00,40.8,29.6,29.94,WSW,246,4.0,15.0,64,0.00,,OVC041,0.00,VWS V14.01,2013-03-06 17:25:00,
2013-03-06 12:30:00,40.8,29.6,29.94,ENE,70,6.0,15.0,64,0.00,,OVC041,0.00,VWS V14.01,2013-03-06 17:30:00,
2013-03-06 12:35:00,40.8,29.6,29.94,ENE,58,6.0,11.0,64,0.00,,OVC041,0.00,VWS V14.01,2013-03-06 17:35:00,
2013-03-06 12:40:00,41.0,29.8,29.94,NE,56,8.0,11.0,64,0.00,,OVC041,0.00,VWS V14.01,2013-03-06 17:40:00,
2013-03-06 12:45:00,41.1,29.9,29.94,NE,39,6.0,11.0,64,0.00,,OVC041,0.00,VWS V14.01,2013-03-06 17:45:00,
2013-03-06 12:50:00,41.2,29.6,29.94,NE,34,4.0,13.0,63,0.00,,OVC041,0.00,VWS V14.01,2013-03-06 17:50:00,
2013-03-06 12:55:00,41.2,29.6,29.94,East,83,4.0,14.0,63,0.00,,OVC041,0.00,VWS V14.01,2013-03-06 17:55:00,
2013-03-06 13:00:00,41.3,29.7,29.94,NE,44,5.0,14.0,63,0.00,,OVC041,0.00,VWS V14.01,2013-03-06 18:00:00,
2013-03-06 13:05:00,41.4,29.8,29.94,NE,45,3.0,9.0,63,0.00,,OVC043,0.00,VWS V14.01,2013-03-06 18:05:00,
2013-03-06 13:10:00,41.5,29.9,29.94,NE,44,6.0,12.0,63,0.00,,OVC043,0.00,VWS V14.01,2013-03-06 18:10:00,
2013-03-06 13:15:00,41.6,30.0,29.94,NNE,20,6.0,12.0,63,0.00,,OVC043,0.00,VWS V14.01,2013-03-06 18:15:00,
2013-03-06 13:20:00,41.6,30.0,29.94,ENE,70,3.0,12.0,63,0.00,,OVC043,0.00,VWS V14.01,2013-03-06 18:20:00,
2013-03-06 13:25:00,41.6,30.0,29.93,NNE,29,11.0,12.0,63,0.00,,OVC043,0.00,VWS V14.01,2013-03-06 18:25:00,
2013-03-06 13:30:00,41.6,30.0,29.94,NE,53,5.0,12.0,63,0.00,,OVC043,0.00,VWS V14.01,2013-03-06 18:30:00,
2013-03-06 13:35:00,41.7,30.0,29.94,NE,47,4.0,7.0,63,0.00,,OVC043,0.00,VWS V14.01,2013-03-06 18:35:00,
2013-03-06 13:40:00,41.8,30.1,29.94,ENE,60,2.0,12.0,63,0.00,,OVC043,0.00,VWS V14.01,2013-03-06 18:40:00,
2013-03-06 13:45:00,42.0,30.3,29.94,NNE,30,3.0,12.0,63,0.00,,OVC043,0.00,VWS V14.01,2013-03-06 18:45:00,
2013-03-06 13:50:00,42.0,30.3,29.93,NNE,30,2.0,12.0,63,0.00,,OVC043,0.00,VWS V14.01,2013-03-06 18:50:00,
2013-03-06 13:55:00,42.3,30.6,29.93,NNE,18,3.0,12.0,63,0.00,,OVC043,0.00,VWS V14.01,2013-03-06 18:55:00,
2013-03-06 14:00:00,42.4,30.3,29.93,ENE,60,4.0,12.0,62,0.00,,OVC043,0.00,VWS V14.01,2013-03-06 19:00:00,
2013-03-06 14:05:00,42.5,30.4,29.93,NE,49,4.0,11.0,62,0.00,,OVC043,0.00,VWS V14.01,2013-03-06 19:05:00,
2013-03-06 14:10:00,42.6,30.5,29.93,NE,39,4.0,11.0,62,0.00,,OVC043,0.00,VWS V14.01,2013-03-06 19:10:00,
2013-03-06 14:15:00,42.8,30.3,29.93,NE,43,4.0,11.0,61,0.00,,OVC043,0.00,VWS V14.01,2013-03-06 19:15:00,
2013-03-06 14:20:00,43.0,30.5,29.93,East,100,5.0,11.0,61,0.00,,OVC043,0.00,VWS V14.01,2013-03-06 19:20:00,
2013-03-06 14:25:00,43.1,30.2,29.93,NE,40,7.0,11.0,60,0.00,,OVC043,0.00,VWS V14.01,2013-03-06 19:25:00,
2013-03-06 14:30:00,43.2,30.3,29.93,ESE,105,8.0,14.0,60,0.00,,OVC043,0.00,VWS V14.01,2013-03-06 19:30:00,
2013-03-06 14:35:00,43.3,30.4,29.93,ESE,110,2.0,13.0,60,0.00,,OVC043,0.00,VWS V14.01,2013-03-06 19:35:00,
2013-03-06 14:40:00,43.5,30.5,29.93,NE,36,4.0,13.0,60,0.00,,OVC043,0.00,VWS V14.01,2013-03-06 19:40:00,
2013-03-06 14:45:00,43.5,30.1,29.93,North,9,7.0,13.0,59,0.00,,OVC043,0.00,VWS V14.01,2013-03-06 19:45:00,
2013-03-06 14:50:00,43.6,30.6,29.93,NE,44,5.0,13.0,60,0.00,,OVC043,0.00,VWS V14.01,2013-03-06 19:50:00,
2013-03-06 14:55:00,43.6,30.2,29.93,NNW,342,5.0,13.0,59,0.00,,OVC043,0.00,VWS V14.01,2013-03-06 19:55:00,
2013-03-06 15:00:00,43.6,30.6,29.93,ENE,60,3.0,14.0,60,0.00,,OVC047,0.00,VWS V14.01,2013-03-06 20:00:00,
2013-03-06 15:05:00,43.6,30.6,29.94,ENE,58,6.0,16.0,60,0.00,,OVC047,0.00,VWS V14.01,2013-03-06 20:05:00,
2013-03-06 15:10:00,43.7,30.7,29.94,NNE,29,10.0,16.0,60,0.00,,OVC047,0.00,VWS V14.01,2013-03-06 20:10:00,
2013-03-06 15:15:00,43.6,30.6,29.94,NNE,21,4.0,16.0,60,0.00,,OVC047,0.00,VWS V14.01,2013-03-06 20:15:00,
2013-03-06 15:20:00,43.5,30.5,29.94,NE,40,4.0,16.0,60,0.00,,OVC047,0.00,VWS V14.01,2013-03-06 20:20:00,
2013-03-06 15:25:00,43.3,30.4,29.95,East,79,4.0,16.0,60,0.00,,OVC047,0.00,VWS V14.01,2013-03-06 20:25:00,
2013-03-06 15:30:00,43.2,30.3,29.94,East,96,5.0,16.0,60,0.00,,OVC047,0.00,VWS V14.01,2013-03-06 20:30:00,
2013-03-06 15:35:00,43.1,30.6,29.95,ENE,60,4.0,11.0,61,0.00,,OVC047,0.00,VWS V14.01,2013-03-06 20:35:00,
2013-03-06 15:40:00,43.0,30.5,29.95,ENE,70,5.0,11.0,61,0.00,,OVC047,0.00,VWS V14.01,2013-03-06 20:40:00,
2013-03-06 15:45:00,42.9,30.4,29.95,NE,55,4.0,14.0,61,0.00,,OVC047,0.00,VWS V14.01,2013-03-06 20:45:00,
2013-03-06 15:50:00,42.8,30.3,29.96,NNE,32,7.0,14.0,61,0.00,,OVC047,0.00,VWS V14.01,2013-03-06 20:50:00,
2013-03-06 15:55:00,42.8,30.7,29.96,NNE,29,6.0,14.0,62,0.00,,OVC047,0.00,VWS V14.01,2013-03-06 20:55:00,
2013-03-06 16:00:00,42.7,30.6,29.96,NE,42,5.0,14.0,62,0.00,,OVC049,0.00,VWS V14.01,2013-03-06 21:00:00,
2013-03-06 16:05:00,42.5,30.4,29.96,NE,47,8.0,16.0,62,0.00,,OVC049,0.00,VWS V14.01,2013-03-06 21:05:00,
2013-03-06 16:10:00,42.4,30.7,29.96,NNE,15,9.0,16.0,63,0.00,,OVC049,0.00,VWS V14.01,2013-03-06 21:10:00,
2013-03-06 16:15:00,42.4,30.7,29.97,East,100,7.0,16.0,63,0.00,,OVC049,0.00,VWS V14.01,2013-03-06 21:15:00,
2013-03-06 16:20:00,42.3,30.6,29.97,East,82,3.0,16.0,63,0.00,,OVC049,0.00,VWS V14.01,2013-03-06 21:20:00,
2013-03-06 16:25:00,42.3,31.0,29.97,NE,42,4.0,16.0,64,0.00,,OVC049,0.00,VWS V14.01,2013-03-06 21:25:00,
2013-03-06 16:30:00,42.3,31.0,29.97,ENE,58,8.0,16.0,64,0.00,,OVC049,0.00,VWS V14.01,2013-03-06 21:30:00,
2013-03-06 16:35:00,42.3,31.0,29.98,NE,34,3.0,10.0,64,0.00,,OVC049,0.00,VWS V14.01,2013-03-06 21:35:00,
2013-03-06 16:40:00,42.3,31.0,29.98,NE,49,2.0,12.0,64,0.00,,OVC049,0.00,VWS V14.01,2013-03-06 21:40:00,
2013-03-06 16:45:00,42.3,31.0,29.98,ESE,120,2.0,12.0,64,0.00,,OVC049,0.00,VWS V14.01,2013-03-06 21:45:00,
2013-03-06 16:50:00,42.3,31.0,29.98,ENE,76,3.0,12.0,64,0.00,,OVC049,0.00,VWS V14.01,2013-03-06 21:50:00,
2013-03-06 16:55:00,42.3,31.0,29.99,ENE,69,3.0,12.0,64,0.00,,OVC049,0.00,VWS V14.01,2013-03-06 21:55:00,
2013-03-06 17:00:00,42.4,31.1,29.99,NNE,26,4.0,14.0,64,0.00,,OVC055,0.00,VWS V14.01,2013-03-06 22:00:00,
2013-03-06 17:05:00,42.4,31.1,29.99,NE,34,2.0,12.0,64,0.00,,OVC055,0.00,VWS V14.01,2013-03-06 22:05:00,
2013-03-06 17:10:00,42.4,31.1,29.99,NE,42,4.0,12.0,64,0.00,,OVC055,0.00,VWS V14.01,2013-03-06 22:10:00,
2013-03-06 17:15:00,42.4,31.1,29.99,NE,49,7.0,12.0,64,0.00,,OVC055,0.00,VWS V14.01,2013-03-06 22:15:00,
2013-03-06 17:20:00,42.3,31.0,29.99,NNE,13,4.0,12.0,64,0.00,,OVC055,0.00,VWS V14.01,2013-03-06 22:20:00,
2013-03-06 17:25:00,42.3,31.4,30.00,NE,47,8.0,12.0,65,0.00,,OVC055,0.00,VWS V14.01,2013-03-06 22:25:00,
2013-03-06 17:30:00,42.2,31.3,30.00,East,82,4.0,14.0,65,0.00,,OVC055,0.00,VWS V14.01,2013-03-06 22:30:00,
2013-03-06 17:35:00,42.2,31.3,30.00,ENE,70,5.0,15.0,65,0.00,,OVC055,0.00,VWS V14.01,2013-03-06 22:35:00,
2013-03-06 17:40:00,42.1,31.2,30.01,NE,40,7.0,15.0,65,0.00,,OVC055,0.00,VWS V14.01,2013-03-06 22:40:00,
2013-03-06 17:45:00,42.1,31.2,30.01,NE,46,8.0,15.0,65,0.00,,OVC055,0.00,VWS V14.01,2013-03-06 22:45:00,
2013-03-06 17:50:00,42.1,31.2,30.01,NE,46,3.0,15.0,65,0.00,,OVC055,0.00,VWS V14.01,2013-03-06 22:50:00,
2013-03-06 17:55:00,42.0,31.1,30.01,NNE,30,4.0,15.0,65,0.00,,OVC055,0.00,VWS V14.01,2013-03-06 22:55:00,
2013-03-06 18:00:00,41.9,31.0,30.02,NE,39,6.0,15.0,65,0.00,,OVC055,0.00,VWS V14.01,2013-03-06 23:00:00,
2013-03-06 18:05:00,41.9,31.0,30.02,ENE,58,2.0,8.0,65,0.00,,OVC055,0.00,VWS V14.01,2013-03-06 23:05:00,
2013-03-06 18:10:00,41.8,30.9,30.02,NE,36,6.0,8.0,65,0.00,,OVC055,0.00,VWS V14.01,2013-03-06 23:10:00,
2013-03-06 18:15:00,41.7,30.8,30.02,ENE,63,5.0,9.0,65,0.00,,OVC055,0.00,VWS V14.01,2013-03-06 23:15:00,
2013-03-06 18:20:00,41.7,30.8,30.02,NNE,25,2.0,9.0,65,0.00,,OVC055,0.00,VWS V14.01,2013-03-06 23:20:00,
2013-03-06 18:25:00,41.6,30.7,30.02,NNE,30,3.0,9.0,65,0.00,,OVC055,0.00,VWS V14.01,2013-03-06 23:25:00,
2013-03-06 18:30:00,41.6,30.7,30.03,NE,34,5.0,9.0,65,0.00,,OVC055,0.00,VWS V14.01,2013-03-06 23:30:00,
2013-03-06 18:35:00,41.6,30.7,30.03,NE,37,2.0,7.0,65,0.00,,OVC055,0.00,VWS V14.01,2013-03-06 23:35:00,
2013-03-06 18:40:00,41.5,30.6,30.03,ENE,70,4.0,9.0,65,0.00,,OVC055,0.00,VWS V14.01,2013-03-06 23:40:00,
2013-03-06 18:45:00,41.5,30.6,30.03,NE,55,1.0,9.0,65,0.00,,OVC055,0.00,VWS V14.01,2013-03-06 23:45:00,
2013-03-06 18:50:00,41.4,30.5,30.04,NE,49,4.0,9.0,65,0.00,,OVC055,0.00,VWS V14.01,2013-03-06 23:50:00,
2013-03-06 18:55:00,41.3,30.4,30.03,ENE,68,7.0,9.0,65,0.00,,OVC055,0.00,VWS V14.01,2013-03-06 23:55:00,
2013-03-06 19:00:00,41.3,30.4,30.04,NE,42,2.0,9.0,65,0.00,,OVC055,0.00,VWS V14.01,2013-03-07 00:00:00,
2013-03-06 19:05:00,41.3,30.4,30.04,ENE,70,2.0,5.0,65,0.00,,OVC055,0.00,VWS V14.01,2013-03-07 00:05:00,
2013-03-06 19:10:00,41.2,30.3,30.04,ENE,77,4.0,9.0,65,0.00,,OVC055,0.00,VWS V14.01,2013-03-07 00:10:00,
2013-03-06 19:15:00,41.2,30.3,30.04,NE,51,3.0,9.0,65,0.00,,OVC055,0.00,VWS V14.01,2013-03-07 00:15:00,
2013-03-06 19:20:00,41.2,30.3,30.04,East,91,3.0,9.0,65,0.00,,OVC055,0.00,VWS V14.01,2013-03-07 00:20:00,
2013-03-06 19:25:00,41.1,30.2,30.04,NE,46,4.0,10.0,65,0.00,,OVC055,0.00,VWS V14.01,2013-03-07 00:25:00,
2013-03-06 19:30:00,41.1,30.2,30.04,East,81,1.0,10.0,65,0.00,,OVC055,0.00,VWS V14.01,2013-03-07 00:30:00,
2013-03-06 19:35:00,41.0,30.5,30.04,NNE,30,4.0,9.0,66,0.00,,OVC055,0.00,VWS V14.01,2013-03-07 00:35:00,
2013-03-06 19:40:00,40.9,30.4,30.04,NE,41,3.0,10.0,66,0.00,,OVC055,0.00,VWS V14.01,2013-03-07 00:40:00,
2013-03-06 19:45:00,40.9,30.4,30.04,East,100,1.0,10.0,66,0.00,,OVC055,0.00,VWS V14.01,2013-03-07 00:45:00,
2013-03-06 19:50:00,40.7,30.2,30.04,East,95,2.0,10.0,66,0.00,,OVC055,0.00,VWS V14.01,2013-03-07 00:50:00,
2013-03-06 19:55:00,40.7,30.2,30.04,NE,46,1.0,11.0,66,0.00,,OVC055,0.00,VWS V14.01,2013-03-07 00:55:00,
2013-03-06 20:00:00,40.6,30.1,30.04,NE,35,3.0,11.0,66,0.00,,OVC055,0.00,VWS V14.01,2013-03-07 01:00:00,
2013-03-06 20:05:00,40.6,30.1,30.04,ENE,58,2.0,9.0,66,0.00,,OVC055,0.00,VWS V14.01,2013-03-07 01:05:00,
2013-03-06 20:10:00,40.5,30.0,30.05,ENE,58,5.0,9.0,66,0.00,,OVC055,0.00,VWS V14.01,2013-03-07 01:10:00,
2013-03-06 20:15:00,40.4,30.0,30.05,NE,54,0.0,9.0,66,0.00,,OVC055,0.00,VWS V14.01,2013-03-07 01:15:00,
2013-03-06 20:20:00,40.4,30.3,30.05,East,84,3.0,10.0,67,0.00,,OVC055,0.00,VWS V14.01,2013-03-07 01:20:00,
2013-03-06 20:25:00,40.3,29.9,30.05,ESE,104,2.0,10.0,66,0.00,,OVC055,0.00,VWS V14.01,2013-03-07 01:25:00,
2013-03-06 20:30:00,40.3,29.9,30.05,NE,43,6.0,10.0,66,0.00,,OVC055,0.00,VWS V14.01,2013-03-07 01:30:00,
2013-03-06 20:35:00,40.2,29.8,30.05,ESE,105,6.0,11.0,66,0.00,,OVC055,0.00,VWS V14.01,2013-03-07 01:35:00,
2013-03-06 20:40:00,40.1,29.7,30.05,East,90,5.0,11.0,66,0.00,,OVC055,0.00,VWS V14.01,2013-03-07 01:40:00,
2013-03-06 20:45:00,40.0,29.6,30.05,ENE,58,10.0,11.0,66,0.00,,OVC055,0.00,VWS V14.01,2013-03-07 01:45:00,
2013-03-06 20:50:00,40.0,29.6,30.05,ESE,114,7.0,12.0,66,0.00,,OVC055,0.00,VWS V14.01,2013-03-07 01:50:00,
2013-03-06 20:55:00,39.9,29.5,30.05,ENE,76,8.0,12.0,66,0.00,,OVC055,0.00,VWS V14.01,2013-03-07 01:55:00,
2013-03-06 21:00:00,39.9,29.5,30.05,ENE,70,1.0,12.0,66,0.00,,OVC050,0.00,VWS V14.01,2013-03-07 02:00:00,
2013-03-06 21:05:00,39.8,29.4,30.05,ENE,73,4.0,10.0,66,0.00,,OVC050,0.00,VWS V14.01,2013-03-07 02:05:00,
2013-03-06 21:10:00,39.7,29.3,30.05,ENE,70,5.0,10.0,66,0.00,,OVC050,0.00,VWS V14.01,2013-03-07 02:10:00,
2013-03-06 21:15:00,39.6,29.2,30.05,NE,51,6.0,12.0,66,0.00,,OVC050,0.00,VWS V14.01,2013-03-07 02:15:00,
2013-03-06 21:20:00,39.6,29.2,30.05,NE,47,2.0,12.0,66,0.00,,OVC050,0.00,VWS V14.01,2013-03-07 02:20:00,
2013-03-06 21:25:00,39.5,29.1,30.05,NE,52,1.0,12.0,66,0.00,,OVC050,0.00,VWS V14.01,2013-03-07 02:25:00,
2013-03-06 21:30:00,39.4,29.4,30.05,East,96,7.0,12.0,67,0.00,,OVC050,0.00,VWS V14.01,2013-03-07 02:30:00,
2013-03-06 21:35:00,39.3,28.9,30.05,ENE,77,8.0,12.0,66,0.00,,OVC050,0.00,VWS V14.01,2013-03-07 02:35:00,
2013-03-06 21:40:00,39.3,28.9,30.05,NE,37,3.0,12.0,66,0.00,,OVC050,0.00,VWS V14.01,2013-03-07 02:40:00,
2013-03-06 21:45:00,39.3,28.9,30.05,NE,37,2.0,12.0,66,0.00,,OVC050,0.00,VWS V14.01,2013-03-07 02:45:00,
2013-03-06 21:50:00,39.2,28.8,30.05,NE,51,2.0,12.0,66,0.00,,OVC050,0.00,VWS V14.01,2013-03-07 02:50:00,
2013-03-06 21:55:00,39.2,29.2,30.05,NE,42,3.0,12.0,67,0.00,,OVC050,0.00,VWS V14.01,2013-03-07 02:55:00,
2013-03-06 22:00:00,39.1,29.1,30.05,NE,56,4.0,12.0,67,0.00,,OVC050,0.00,VWS V14.01,2013-03-07 03:00:00,
2013-03-06 22:05:00,39.0,29.0,30.05,East,83,6.0,10.0,67,0.00,,OVC050,0.00,VWS V14.01,2013-03-07 03:05:00,
2013-03-06 22:10:00,39.1,28.7,30.06,NNE,17,5.0,14.0,66,0.00,,OVC050,0.00,VWS V14.01,2013-03-07 03:10:00,
2013-03-06 22:15:00,38.9,28.9,30.06,NE,39,4.0,14.0,67,0.00,,OVC050,0.00,VWS V14.01,2013-03-07 03:15:00,
2013-03-06 22:20:00,38.9,28.9,30.06,NNE,25,1.0,14.0,67,0.00,,OVC050,0.00,VWS V14.01,2013-03-07 03:20:00,
2013-03-06 22:25:00,38.9,28.9,30.06,ENE,70,2.0,14.0,67,0.00,,OVC050,0.00,VWS V14.01,2013-03-07 03:25:00,
2013-03-06 22:30:00,38.9,28.9,30.06,NE,46,3.0,14.0,67,0.00,,OVC050,0.00,VWS V14.01,2013-03-07 03:30:00,
2013-03-06 22:35:00,38.8,28.8,30.06,NE,34,1.0,6.0,67,0.00,,OVC050,0.00,VWS V14.01,2013-03-07 03:35:00,
2013-03-06 22:40:00,38.8,28.8,30.06,NE,37,5.0,8.0,67,0.00,,OVC050,0.00,VWS V14.01,2013-03-07 03:40:00,
2013-03-06 22:45:00,38.8,28.8,30.06,ENE,58,1.0,8.0,67,0.00,,OVC050,0.00,VWS V14.01,2013-03-07 03:45:00,
2013-03-06 22:50:00,38.7,28.7,30.06,NE,36,1.0,8.0,67,0.00,,OVC050,0.00,VWS V14.01,2013-03-07 03:50:00,
2013-03-06 22:55:00,38.7,28.3,30.06,NE,45,2.0,8.0,66,0.00,,OVC050,0.00,VWS V14.01,2013-03-07 03:55:00,
2013-03-06 23:00:00,38.7,28.7,30.06,NE,47,5.0,8.0,67,0.00,,OVC048,0.00,VWS V14.01,2013-03-07 04:00:00,
2013-03-06 23:05:00,38.7,28.3,30.06,NE,51,1.0,7.0,66,0.00,,OVC048,0.00,VWS V14.01,2013-03-07 04:05:00,
2013-03-06 23:10:00,38.6,28.6,30.06,NNE,27,0.0,7.0,67,0.00,,OVC048,0.00,VWS V14.01,2013-03-07 04:10:00,
2013-03-06 23:15:00,38.5,28.5,30.06,NNE,33,3.0,7.0,67,0.00,,OVC048,0.00,VWS V14.01,2013-03-07 04:15:00,
2013-03-06 23:20:00,38.5,28.5,30.07,NE,46,1.0,7.0,67,0.00,,OVC048,0.00,VWS V14.01,2013-03-07 04:20:00,
2013-03-06 23:25:00,38.5,28.5,30.07,NE,40,4.0,7.0,67,0.00,,OVC048,0.00,VWS V14.01,2013-03-07 04:25:00,
2013-03-06 23:30:00,38.5,28.1,30.07,NE,36,4.0,7.0,66,0.00,,OVC048,0.00,VWS V14.01,2013-03-07 04:30:00,
2013-03-06 23:35:00,38.5,28.1,30.07,NNE,22,3.0,6.0,66,0.00,,OVC048,0.00,VWS V14.01,2013-03-07 04:35:00,
2013-03-06 23:40:00,38.4,28.0,30.07,NNE,21,6.0,6.0,66,0.00,,OVC048,0.00,VWS V14.01,2013-03-07 04:40:00,
2013-03-06 23:45:00,38.4,28.0,30.07,NE,39,1.0,6.0,66,0.00,,OVC048,0.00,VWS V14.01,2013-03-07 04:45:00,
2013-03-06 23:50:00,38.3,28.0,30.07,NE,45,1.0,6.0,66,0.00,,OVC048,0.00,VWS V14.01,2013-03-07 04:50:00,
2013-03-06 23:55:00,38.2,27.9,30.07,NE,42,5.0,6.0,66,0.00,,OVC048,0.00,VWS V14.01,2013-03-07 04:55:00,